Time,TemperatureF,DewpointF,PressureIn,WindDirection,WindDirectionDegrees,WindSpeedMPH,WindSpeedGustMPH,Humidity,HourlyPrecipIn,Conditions,Clouds,dailyrainin,SoftwareType,DateUTC
2013-07-10 00:02:00,57.9,46.6,30.04,WNW,292,0.0,0.0,66,0.00,,,0.00,meteohub,2013-07-10 07:02:00,
2013-07-10 00:07:00,57.9,46.6,30.04,WNW,292,0.0,0.0,66,0.00,,,0.00,meteohub,2013-07-10 07:07:00,
2013-07-10 00:12:00,57.7,46.4,30.04,WNW,292,0.0,0.0,66,0.00,,,0.00,meteohub,2013-07-10 07:12:00,
2013-07-10 00:17:00,57.7,46.4,30.04,WNW,292,0.0,0.0,66,0.00,,,0.00,meteohub,2013-07-10 07:17:00,
2013-07-10 00:22:00,57.6,46.2,30.04,WNW,292,0.0,0.0,66,0.00,,,0.00,meteohub,2013-07-10 07:22:00,
2013-07-10 00:27:00,57.4,46.0,30.04,WNW,292,0.0,0.0,66,0.00,,,0.00,meteohub,2013-07-10 07:27:00,
2013-07-10 00:32:00,57.4,46.0,30.04,WNW,292,0.0,0.0,66,0.00,,,0.00,meteohub,2013-07-10 07:32:00,
2013-07-10 00:37:00,57.2,45.9,30.04,WNW,292,0.0,0.0,66,0.00,,,0.00,meteohub,2013-07-10 07:37:00,
2013-07-10 00:42:00,57.0,45.9,30.04,WNW,292,0.0,0.0,66,0.00,,,0.00,meteohub,2013-07-10 07:42:00,
2013-07-10 00:47:00,57.0,45.9,30.04,WNW,292,0.0,0.0,66,0.00,,,0.00,meteohub,2013-07-10 07:47:00,
2013-07-10 00:52:00,56.8,45.1,30.04,WNW,292,0.0,0.0,65,0.00,,,0.00,meteohub,2013-07-10 07:52:00,
2013-07-10 00:57:00,56.8,45.7,30.04,WNW,292,0.0,0.0,66,0.00,,,0.00,meteohub,2013-07-10 07:57:00,
2013-07-10 01:02:00,56.7,45.5,30.04,WNW,292,0.0,0.0,66,0.00,,,0.00,meteohub,2013-07-10 08:02:00,
2013-07-10 01:07:00,56.5,44.8,30.03,WNW,292,0.0,0.0,65,0.00,,,0.00,meteohub,2013-07-10 08:07:00,
2013-07-10 01:12:00,56.5,44.8,30.04,WNW,292,0.0,0.0,65,0.00,,,0.00,meteohub,2013-07-10 08:12:00,
2013-07-10 01:17:00,56.3,44.6,30.04,WNW,292,0.0,0.0,65,0.00,,,0.00,meteohub,2013-07-10 08:17:00,
2013-07-10 01:22:00,56.1,45.0,30.03,WNW,292,0.0,0.0,66,0.00,,,0.00,meteohub,2013-07-10 08:22:00,
2013-07-10 01:27:00,55.9,44.8,30.04,WNW,292,0.0,0.0,66,0.00,,,0.00,meteohub,2013-07-10 08:27:00,
2013-07-10 01:32:00,55.8,44.6,30.04,WNW,292,0.0,0.0,66,0.00,,,0.00,meteohub,2013-07-10 08:32:00,
2013-07-10 01:37:00,55.8,44.6,30.04,WNW,292,0.0,0.0,66,0.00,,,0.00,meteohub,2013-07-10 08:37:00,
2013-07-10 01:42:00,55.6,44.4,30.04,WNW,292,0.0,0.0,66,0.00,,,0.00,meteohub,2013-07-10 08:42:00,
2013-07-10 01:47:00,55.2,44.1,30.04,WNW,292,0.0,0.0,66,0.00,,,0.00,meteohub,2013-07-10 08:47:00,
2013-07-10 01:52:00,55.2,44.4,30.04,WNW,292,0.0,0.0,67,0.00,,,0.00,meteohub,2013-07-10 08:52:00,
2013-07-10 01:57:00,55.0,44.2,30.04,WNW,292,0.0,0.0,67,0.00,,,0.00,meteohub,2013-07-10 08:57:00,
2013-07-10 02:02:00,54.9,44.1,30.04,WNW,292,0.0,0.0,67,0.00,,,0.00,meteohub,2013-07-10 09:02:00,
2013-07-10 02:07:00,54.7,43.9,30.04,WNW,292,0.0,0.0,67,0.00,,,0.00,meteohub,2013-07-10 09:07:00,
2013-07-10 02:12:00,54.5,43.3,30.04,WNW,292,0.0,0.0,66,0.00,,,0.00,meteohub,2013-07-10 09:12:00,
2013-07-10 02:17:00,54.3,43.2,30.04,WNW,292,0.0,0.0,66,0.00,,,0.00,meteohub,2013-07-10 09:17:00,
2013-07-10 02:22:00,54.1,43.0,30.04,WNW,292,0.0,0.0,66,0.00,,,0.00,meteohub,2013-07-10 09:22:00,
2013-07-10 02:27:00,54.1,43.0,30.04,WNW,292,0.0,0.0,66,0.00,,,0.00,meteohub,2013-07-10 09:27:00,
2013-07-10 02:32:00,54.0,42.8,30.04,WNW,292,0.0,0.0,66,0.00,,,0.00,meteohub,2013-07-10 09:32:00,
2013-07-10 02:37:00,54.0,42.8,30.04,WNW,292,0.0,0.0,66,0.00,,,0.00,meteohub,2013-07-10 09:37:00,
2013-07-10 02:42:00,53.8,42.6,30.04,WNW,292,0.0,0.0,66,0.00,,,0.00,meteohub,2013-07-10 09:42:00,
2013-07-10 02:47:00,53.8,42.6,30.04,WNW,292,0.0,0.0,66,0.00,,,0.00,meteohub,2013-07-10 09:47:00,
2013-07-10 02:52:00,53.6,42.4,30.04,WNW,292,0.0,0.0,66,0.00,,,0.00,meteohub,2013-07-10 09:52:00,
2013-07-10 02:57:00,53.4,42.3,30.04,WNW,292,0.0,0.0,66,0.00,,,0.00,meteohub,2013-07-10 09:57:00,
2013-07-10 03:02:00,53.2,42.3,30.04,WNW,292,0.0,0.0,66,0.00,,,0.00,meteohub,2013-07-10 10:02:00,
2013-07-10 03:07:00,53.2,42.3,30.04,WNW,292,0.0,0.0,66,0.00,,,0.00,meteohub,2013-07-10 10:07:00,
2013-07-10 03:12:00,53.1,42.1,30.04,WNW,292,0.0,0.0,66,0.00,,,0.00,meteohub,2013-07-10 10:12:00,
2013-07-10 03:17:00,53.1,41.5,30.04,WNW,292,0.0,0.0,65,0.00,,,0.00,meteohub,2013-07-10 10:17:00,
2013-07-10 03:22:00,52.9,41.4,30.04,WNW,292,0.0,0.0,65,0.00,,,0.00,meteohub,2013-07-10 10:22:00,
2013-07-10 03:27:00,52.7,41.2,30.04,WNW,292,0.0,0.0,65,0.00,,,0.00,meteohub,2013-07-10 10:27:00,
2013-07-10 03:32:00,52.5,41.5,30.04,WNW,292,0.0,0.0,66,0.00,,,0.00,meteohub,2013-07-10 10:32:00,
2013-07-10 03:37:00,52.3,41.0,30.04,WNW,292,0.0,0.0,65,0.00,,,0.00,meteohub,2013-07-10 10:37:00,
2013-07-10 03:42:00,52.3,41.0,30.04,WNW,292,0.0,0.0,65,0.00,,,0.00,meteohub,2013-07-10 10:42:00,
2013-07-10 03:47:00,52.2,40.8,30.04,WNW,292,0.0,0.0,65,0.00,,,0.00,meteohub,2013-07-10 10:47:00,
2013-07-10 03:52:00,52.0,41.0,30.04,WNW,292,0.0,0.0,66,0.00,,,0.00,meteohub,2013-07-10 10:52:00,
2013-07-10 03:57:00,52.0,41.0,30.05,WNW,292,0.0,0.0,66,0.00,,,0.00,meteohub,2013-07-10 10:57:00,
2013-07-10 04:02:00,52.0,40.6,30.05,WNW,292,0.0,0.0,65,0.00,,,0.00,meteohub,2013-07-10 11:02:00,
2013-07-10 04:07:00,51.8,40.5,30.04,WNW,292,0.0,0.0,65,0.00,,,0.00,meteohub,2013-07-10 11:07:00,
2013-07-10 04:12:00,51.6,40.3,30.05,WNW,292,0.0,0.0,65,0.00,,,0.00,meteohub,2013-07-10 11:12:00,
2013-07-10 04:17:00,51.6,40.3,30.05,WNW,292,0.0,0.0,65,0.00,,,0.00,meteohub,2013-07-10 11:17:00,
2013-07-10 04:22:00,51.4,40.1,30.05,WNW,292,0.0,0.0,65,0.00,,,0.00,meteohub,2013-07-10 11:22:00,
2013-07-10 04:27:00,51.3,39.9,30.05,WNW,292,0.0,0.0,65,0.00,,,0.00,meteohub,2013-07-10 11:27:00,
2013-07-10 04:32:00,51.3,39.9,30.05,WNW,292,0.0,0.0,65,0.00,,,0.00,meteohub,2013-07-10 11:32:00,
2013-07-10 04:37:00,51.3,39.9,30.05,WNW,292,0.0,0.0,65,0.00,,,0.00,meteohub,2013-07-10 11:37:00,
2013-07-10 04:42:00,51.1,39.7,30.05,WNW,292,0.0,0.0,65,0.00,,,0.00,meteohub,2013-07-10 11:42:00,
2013-07-10 04:47:00,51.1,39.4,30.05,WNW,292,0.0,0.0,64,0.00,,,0.00,meteohub,2013-07-10 11:47:00,
2013-07-10 04:52:00,51.1,39.4,30.05,WNW,292,0.0,0.0,64,0.00,,,0.00,meteohub,2013-07-10 11:52:00,
2013-07-10 04:57:00,50.9,39.6,30.05,WNW,292,0.0,0.0,65,0.00,,,0.00,meteohub,2013-07-10 11:57:00,
2013-07-10 05:02:00,50.7,39.4,30.05,WNW,292,0.0,0.0,65,0.00,,,0.00,meteohub,2013-07-10 12:02:00,
2013-07-10 05:07:00,50.5,38.8,30.05,WNW,292,0.0,0.0,64,0.00,,,0.00,meteohub,2013-07-10 12:07:00,
2013-07-10 05:12:00,50.5,38.8,30.05,WNW,292,0.0,0.0,64,0.00,,,0.00,meteohub,2013-07-10 12:12:00,
2013-07-10 05:17:00,50.4,39.0,30.05,WNW,292,0.0,0.0,65,0.00,,,0.00,meteohub,2013-07-10 12:17:00,
2013-07-10 05:22:00,50.4,38.7,30.05,WNW,292,0.0,0.0,64,0.00,,,0.00,meteohub,2013-07-10 12:22:00,
2013-07-10 05:27:00,50.4,38.7,30.05,WNW,292,0.0,0.0,64,0.00,,,0.00,meteohub,2013-07-10 12:27:00,
2013-07-10 05:32:00,50.4,38.7,30.05,WNW,292,0.0,0.0,64,0.00,,,0.00,meteohub,2013-07-10 12:32:00,
2013-07-10 05:37:00,50.4,38.3,30.05,WNW,292,0.0,0.0,63,0.00,,,0.00,meteohub,2013-07-10 12:37:00,
2013-07-10 05:42:00,50.4,38.3,30.05,WNW,292,0.0,0.0,63,0.00,,,0.00,meteohub,2013-07-10 12:42:00,
2013-07-10 05:47:00,50.2,38.5,30.05,WNW,292,0.0,0.0,64,0.00,,,0.00,meteohub,2013-07-10 12:47:00,
2013-07-10 05:52:00,50.2,38.5,30.05,WNW,292,0.0,0.0,64,0.00,,,0.00,meteohub,2013-07-10 12:52:00,
2013-07-10 05:57:00,50.2,38.5,30.05,WNW,292,0.0,0.0,64,0.00,,,0.00,meteohub,2013-07-10 12:57:00,
2013-07-10 06:02:00,50.2,38.1,30.05,WNW,292,0.0,0.0,63,0.00,,,0.00,meteohub,2013-07-10 13:02:00,
2013-07-10 06:07:00,50.4,38.3,30.05,WNW,292,0.0,0.0,63,0.00,,,0.00,meteohub,2013-07-10 13:07:00,
2013-07-10 06:12:00,50.7,38.1,30.05,WNW,292,0.0,0.0,62,0.00,,,0.00,meteohub,2013-07-10 13:12:00,
2013-07-10 06:17:00,51.1,38.1,30.05,WNW,292,0.0,0.0,61,0.00,,,0.00,meteohub,2013-07-10 13:17:00,
2013-07-10 06:22:00,51.4,38.5,30.05,WNW,292,0.0,0.0,61,0.00,,,0.00,meteohub,2013-07-10 13:22:00,
2013-07-10 06:27:00,51.6,38.1,30.05,WNW,292,0.0,0.0,60,0.00,,,0.00,meteohub,2013-07-10 13:27:00,
2013-07-10 06:32:00,52.2,38.7,30.05,WNW,292,0.0,0.0,60,0.00,,,0.00,meteohub,2013-07-10 13:32:00,
2013-07-10 06:37:00,52.3,38.8,30.06,WNW,292,0.0,0.0,60,0.00,,,0.00,meteohub,2013-07-10 13:37:00,
2013-07-10 06:42:00,52.7,38.8,30.06,WNW,292,0.0,0.0,59,0.00,,,0.00,meteohub,2013-07-10 13:42:00,
2013-07-10 06:47:00,52.9,39.0,30.06,WNW,292,0.0,0.0,59,0.00,,,0.00,meteohub,2013-07-10 13:47:00,
2013-07-10 06:52:00,53.1,39.2,30.06,WNW,292,0.0,0.0,59,0.00,,,0.00,meteohub,2013-07-10 13:52:00,
2013-07-10 06:57:00,53.4,39.4,30.06,WNW,292,0.0,0.0,59,0.00,,,0.00,meteohub,2013-07-10 13:57:00,
2013-07-10 07:02:00,53.6,39.6,30.06,WNW,292,0.0,0.0,59,0.00,,,0.00,meteohub,2013-07-10 14:02:00,
2013-07-10 07:07:00,53.8,39.7,30.06,WNW,292,0.0,0.0,59,0.00,,,0.00,meteohub,2013-07-10 14:07:00,
2013-07-10 07:12:00,53.8,39.4,30.06,WNW,292,0.0,0.0,58,0.00,,,0.00,meteohub,2013-07-10 14:12:00,
2013-07-10 07:17:00,54.0,39.9,30.06,WNW,292,0.0,0.0,59,0.00,,,0.00,meteohub,2013-07-10 14:17:00,
2013-07-10 07:22:00,53.8,39.4,30.06,WNW,292,0.0,0.0,58,0.00,,,0.00,meteohub,2013-07-10 14:22:00,
2013-07-10 07:27:00,53.8,39.4,30.07,WNW,293,0.0,0.0,58,0.00,,,0.00,meteohub,2013-07-10 14:27:00,
2013-07-10 07:32:00,53.8,39.4,30.07,WNW,300,0.0,0.0,58,0.00,,,0.00,meteohub,2013-07-10 14:32:00,
2013-07-10 07:37:00,54.0,39.9,30.07,WNW,300,0.0,0.0,59,0.00,,,0.00,meteohub,2013-07-10 14:37:00,
2013-07-10 07:42:00,54.0,39.9,30.07,WNW,300,0.0,0.0,59,0.00,,,0.00,meteohub,2013-07-10 14:42:00,
2013-07-10 07:47:00,54.1,40.1,30.07,WNW,300,0.0,0.0,59,0.00,,,0.00,meteohub,2013-07-10 14:47:00,
2013-07-10 07:52:00,54.3,40.3,30.07,WNW,300,0.0,0.0,59,0.00,,,0.00,meteohub,2013-07-10 14:52:00,
2013-07-10 07:57:00,54.5,40.8,30.07,West,281,0.0,2.0,60,0.00,,,0.00,meteohub,2013-07-10 14:57:00,
2013-07-10 08:02:00,54.7,41.5,30.07,West,281,0.0,2.0,61,0.00,,,0.00,meteohub,2013-07-10 15:02:00,
2013-07-10 08:07:00,55.0,42.3,30.07,West,281,0.0,3.0,62,0.00,,,0.00,meteohub,2013-07-10 15:07:00,
2013-07-10 08:12:00,55.2,43.3,30.07,West,281,0.0,3.0,64,0.00,,,0.00,meteohub,2013-07-10 15:12:00,
2013-07-10 08:17:00,55.4,44.2,30.07,NW,310,0.0,2.0,66,0.00,,,0.00,meteohub,2013-07-10 15:17:00,
2013-07-10 08:22:00,55.6,45.1,30.07,West,269,0.0,4.0,68,0.00,,,0.00,meteohub,2013-07-10 15:22:00,
2013-07-10 08:27:00,55.8,45.7,30.08,West,275,0.0,4.0,69,0.00,,,0.00,meteohub,2013-07-10 15:27:00,
2013-07-10 08:32:00,55.8,46.0,30.08,West,275,0.0,4.0,70,0.00,,,0.00,meteohub,2013-07-10 15:32:00,
2013-07-10 08:37:00,55.8,45.7,30.08,West,275,1.0,4.0,69,0.00,,,0.00,meteohub,2013-07-10 15:37:00,
2013-07-10 08:42:00,55.9,47.1,30.08,WNW,303,0.0,2.0,72,0.00,,,0.00,meteohub,2013-07-10 15:42:00,
2013-07-10 08:47:00,55.9,47.5,30.08,WNW,302,0.0,3.0,73,0.00,,,0.00,meteohub,2013-07-10 15:47:00,
2013-07-10 08:52:00,55.9,47.5,30.08,NW,306,0.0,3.0,73,0.00,,,0.00,meteohub,2013-07-10 15:52:00,
2013-07-10 08:57:00,56.1,48.4,30.08,WNW,300,0.0,3.0,75,0.00,,,0.00,meteohub,2013-07-10 15:57:00,
2013-07-10 09:02:00,56.1,48.4,30.08,WNW,300,0.0,3.0,75,0.00,,,0.00,meteohub,2013-07-10 16:02:00,
2013-07-10 09:07:00,56.5,48.9,30.08,WNW,300,0.0,3.0,76,0.00,,,0.00,meteohub,2013-07-10 16:07:00,
2013-07-10 09:12:00,56.5,48.9,30.08,WNW,300,0.0,1.0,76,0.00,,,0.00,meteohub,2013-07-10 16:12:00,
2013-07-10 09:17:00,56.7,49.1,30.08,WNW,298,0.0,1.0,76,0.00,,,0.00,meteohub,2013-07-10 16:17:00,
2013-07-10 09:22:00,56.8,49.3,30.08,West,269,0.0,1.0,76,0.00,,,0.00,meteohub,2013-07-10 16:22:00,
2013-07-10 09:27:00,57.0,50.2,30.08,WNW,296,1.0,1.0,78,0.00,,,0.00,meteohub,2013-07-10 16:27:00,
2013-07-10 09:32:00,57.0,50.5,30.08,WSW,237,0.0,2.0,79,0.00,,,0.00,meteohub,2013-07-10 16:32:00,
2013-07-10 09:37:00,56.8,50.4,30.08,SSW,212,0.0,4.0,79,0.00,,,0.00,meteohub,2013-07-10 16:37:00,
2013-07-10 09:42:00,56.8,50.4,30.08,SW,232,0.0,4.0,79,0.00,,,0.00,meteohub,2013-07-10 16:42:00,
2013-07-10 09:47:00,56.8,50.4,30.08,WSW,247,0.0,4.0,79,0.00,,,0.00,meteohub,2013-07-10 16:47:00,
2013-07-10 09:52:00,57.0,50.5,30.08,West,260,0.0,3.0,79,0.00,,,0.00,meteohub,2013-07-10 16:52:00,
2013-07-10 09:57:00,57.0,50.9,30.08,West,263,0.0,3.0,80,0.00,,,0.00,meteohub,2013-07-10 16:57:00,
2013-07-10 10:02:00,57.0,51.3,30.08,West,263,0.0,3.0,81,0.00,,,0.00,meteohub,2013-07-10 17:02:00,
2013-07-10 10:07:00,57.0,51.3,30.08,NW,306,0.0,3.0,81,0.00,,,0.00,meteohub,2013-07-10 17:07:00,
2013-07-10 10:12:00,57.4,51.6,30.08,NW,306,0.0,3.0,81,0.00,,,0.00,meteohub,2013-07-10 17:12:00,
2013-07-10 10:17:00,57.7,52.0,30.08,WNW,293,3.0,3.0,81,0.00,,,0.00,meteohub,2013-07-10 17:17:00,
2013-07-10 10:22:00,57.9,52.2,30.08,WNW,299,0.0,3.0,81,0.00,,,0.00,meteohub,2013-07-10 17:22:00,
2013-07-10 10:27:00,57.9,52.5,30.08,SW,221,2.0,3.0,82,0.00,,,0.00,meteohub,2013-07-10 17:27:00,
2013-07-10 10:32:00,58.3,52.5,30.08,West,267,0.0,3.0,81,0.00,,,0.00,meteohub,2013-07-10 17:32:00,
2013-07-10 10:37:00,58.3,52.9,30.08,SSW,210,0.0,4.0,82,0.00,,,0.00,meteohub,2013-07-10 17:37:00,
2013-07-10 10:42:00,58.5,53.1,30.08,SW,221,0.0,4.0,82,0.00,,,0.00,meteohub,2013-07-10 17:42:00,
2013-07-10 10:47:00,58.8,53.4,30.08,WNW,283,1.0,3.0,82,0.00,,,0.00,meteohub,2013-07-10 17:47:00,
2013-07-10 10:52:00,59.2,53.6,30.08,West,278,0.0,3.0,82,0.00,,,0.00,meteohub,2013-07-10 17:52:00,
2013-07-10 10:57:00,59.4,53.8,30.08,West,267,0.0,3.0,82,0.00,,,0.00,meteohub,2013-07-10 17:57:00,
2013-07-10 11:02:00,59.7,54.1,30.08,West,267,0.0,4.0,82,0.00,,,0.00,meteohub,2013-07-10 18:02:00,
2013-07-10 11:07:00,60.1,54.3,30.08,North,5,0.0,4.0,81,0.00,,,0.00,meteohub,2013-07-10 18:07:00,
2013-07-10 11:12:00,60.4,54.9,30.07,NW,311,0.0,4.0,82,0.00,,,0.00,meteohub,2013-07-10 18:12:00,
2013-07-10 11:17:00,60.8,54.9,30.08,North,10,0.0,2.0,81,0.00,,,0.00,meteohub,2013-07-10 18:17:00,
2013-07-10 11:22:00,61.3,55.4,30.08,North,5,0.0,2.0,81,0.00,,,0.00,meteohub,2013-07-10 18:22:00,
2013-07-10 11:27:00,62.1,56.1,30.07,North,355,0.0,1.0,81,0.00,,,0.00,meteohub,2013-07-10 18:27:00,
2013-07-10 11:32:00,61.9,55.2,30.07,South,188,0.0,4.0,79,0.00,,,0.00,meteohub,2013-07-10 18:32:00,
2013-07-10 11:37:00,61.9,55.6,30.07,NW,316,4.0,4.0,80,0.00,,,0.00,meteohub,2013-07-10 18:37:00,
2013-07-10 11:42:00,62.4,55.8,30.07,NW,317,0.0,5.0,79,0.00,,,0.00,meteohub,2013-07-10 18:42:00,
2013-07-10 11:47:00,63.1,56.1,30.06,ENE,78,1.0,5.0,78,0.00,,,0.00,meteohub,2013-07-10 18:47:00,
2013-07-10 11:52:00,64.0,57.4,30.06,East,96,0.0,5.0,79,0.00,,,0.00,meteohub,2013-07-10 18:52:00,
2013-07-10 11:57:00,65.1,58.1,30.06,NW,309,1.0,3.0,78,0.00,,,0.00,meteohub,2013-07-10 18:57:00,
2013-07-10 12:03:00,65.8,57.0,30.06,NNE,28,0.0,3.0,73,0.00,,,0.00,meteohub,2013-07-10 19:03:00,
2013-07-10 12:08:00,66.6,57.6,30.06,West,279,0.0,4.0,73,0.00,,,0.00,meteohub,2013-07-10 19:08:00,
2013-07-10 12:13:00,66.7,57.4,30.06,WSW,242,0.0,4.0,72,0.00,,,0.00,meteohub,2013-07-10 19:13:00,
2013-07-10 12:18:00,66.9,57.9,30.06,West,273,0.0,4.0,73,0.00,,,0.00,meteohub,2013-07-10 19:18:00,
2013-07-10 12:23:00,67.3,57.6,30.06,SE,128,0.0,6.0,71,0.00,,,0.00,meteohub,2013-07-10 19:23:00,
2013-07-10 12:28:00,68.0,58.3,30.06,NW,309,6.0,6.0,71,0.00,,,0.00,meteohub,2013-07-10 19:28:00,
2013-07-10 12:33:00,68.7,59.0,30.05,West,273,0.0,7.0,71,0.00,,,0.00,meteohub,2013-07-10 19:33:00,
2013-07-10 12:38:00,69.4,57.9,30.05,NW,310,0.0,7.0,67,0.00,,,0.00,meteohub,2013-07-10 19:38:00,
2013-07-10 12:43:00,70.2,59.5,30.05,West,263,0.0,7.0,69,0.00,,,0.00,meteohub,2013-07-10 19:43:00,
2013-07-10 12:48:00,70.0,57.7,30.05,SW,234,1.0,10.0,65,0.00,,,0.00,meteohub,2013-07-10 19:48:00,
2013-07-10 12:53:00,70.5,60.3,30.04,NNW,339,2.0,10.0,70,0.00,,,0.00,meteohub,2013-07-10 19:53:00,
2013-07-10 12:58:00,71.2,59.4,30.04,WSW,250,0.0,9.0,66,0.00,,,0.00,meteohub,2013-07-10 19:58:00,
2013-07-10 13:03:00,71.6,60.4,30.04,NE,38,0.0,6.0,68,0.00,,,0.00,meteohub,2013-07-10 20:03:00,
2013-07-10 13:08:00,72.0,59.2,30.04,ESE,113,0.0,6.0,64,0.00,,,0.00,meteohub,2013-07-10 20:08:00,
2013-07-10 13:13:00,72.5,60.1,30.04,ENE,77,0.0,4.0,65,0.00,,,0.00,meteohub,2013-07-10 20:13:00,
2013-07-10 13:18:00,72.9,59.5,30.04,WNW,302,0.0,6.0,63,0.00,,,0.00,meteohub,2013-07-10 20:18:00,
2013-07-10 13:23:00,73.6,59.4,30.04,West,268,5.0,7.0,61,0.00,,,0.00,meteohub,2013-07-10 20:23:00,
2013-07-10 13:28:00,73.8,58.1,30.04,NW,320,0.0,7.0,58,0.00,,,0.00,meteohub,2013-07-10 20:28:00,
2013-07-10 13:33:00,73.6,58.8,30.04,WNW,283,0.0,8.0,60,0.00,,,0.00,meteohub,2013-07-10 20:33:00,
2013-07-10 13:38:00,73.9,57.7,30.04,NW,306,0.0,8.0,57,0.00,,,0.00,meteohub,2013-07-10 20:38:00,
2013-07-10 13:43:00,74.1,59.7,30.04,NW,306,1.0,10.0,61,0.00,,,0.00,meteohub,2013-07-10 20:43:00,
2013-07-10 13:48:00,74.3,58.6,30.04,West,271,0.0,10.0,58,0.00,,,0.00,meteohub,2013-07-10 20:48:00,
2013-07-10 13:53:00,74.8,59.5,30.04,West,281,0.0,10.0,59,0.00,,,0.00,meteohub,2013-07-10 20:53:00,
2013-07-10 13:58:00,75.0,59.7,30.03,North,0,0.0,9.0,59,0.00,,,0.00,meteohub,2013-07-10 20:58:00,
2013-07-10 14:03:00,75.0,59.2,30.03,West,275,5.0,7.0,58,0.00,,,0.00,meteohub,2013-07-10 21:03:00,
2013-07-10 14:08:00,74.7,58.5,30.03,NW,312,4.0,7.0,57,0.00,,,0.00,meteohub,2013-07-10 21:08:00,
2013-07-10 14:13:00,74.8,58.6,30.03,WNW,302,6.0,9.0,57,0.00,,,0.00,meteohub,2013-07-10 21:13:00,
2013-07-10 14:18:00,75.2,57.9,30.03,WNW,292,4.0,9.0,55,0.00,,,0.00,meteohub,2013-07-10 21:18:00,
2013-07-10 14:23:00,75.7,57.4,30.02,South,183,1.0,9.0,53,0.00,,,0.00,meteohub,2013-07-10 21:23:00,
2013-07-10 14:28:00,75.9,57.6,30.02,West,267,2.0,9.0,53,0.00,,,0.00,meteohub,2013-07-10 21:28:00,
2013-07-10 14:33:00,76.3,57.4,30.02,NW,308,0.0,8.0,52,0.00,,,0.00,meteohub,2013-07-10 21:33:00,
2013-07-10 14:38:00,75.9,57.6,30.02,NW,314,4.0,8.0,53,0.00,,,0.00,meteohub,2013-07-10 21:38:00,
2013-07-10 14:43:00,75.9,55.9,30.02,WNW,283,4.0,9.0,50,0.00,,,0.00,meteohub,2013-07-10 21:43:00,
2013-07-10 14:48:00,75.9,57.6,30.02,SW,217,3.0,9.0,53,0.00,,,0.00,meteohub,2013-07-10 21:48:00,
2013-07-10 14:53:00,75.2,56.3,30.01,SW,226,0.0,11.0,52,0.00,,,0.00,meteohub,2013-07-10 21:53:00,
2013-07-10 14:58:00,74.8,57.0,30.01,WSW,256,0.0,11.0,54,0.00,,,0.00,meteohub,2013-07-10 21:58:00,
2013-07-10 15:03:00,75.0,57.2,30.01,WSW,253,3.0,11.0,54,0.00,,,0.00,meteohub,2013-07-10 22:03:00,
2013-07-10 15:08:00,75.7,57.9,30.01,WSW,256,4.0,8.0,54,0.00,,,0.00,meteohub,2013-07-10 22:08:00,
2013-07-10 15:14:00,76.5,58.1,30.01,North,0,0.0,8.0,53,0.00,,,0.00,meteohub,2013-07-10 22:14:00,
2013-07-10 15:19:00,76.5,57.6,30.01,WNW,294,3.0,7.0,52,0.00,,,0.00,meteohub,2013-07-10 22:19:00,
2013-07-10 15:24:00,76.6,57.2,30.01,West,275,5.0,11.0,51,0.00,,,0.00,meteohub,2013-07-10 22:24:00,
2013-07-10 15:29:00,76.8,56.8,30.01,NW,309,2.0,11.0,50,0.00,,,0.00,meteohub,2013-07-10 22:29:00,
2013-07-10 15:34:00,76.8,55.6,30.01,WSW,248,6.0,11.0,48,0.00,,,0.00,meteohub,2013-07-10 22:34:00,
2013-07-10 15:39:00,76.8,55.0,30.01,NNW,342,0.0,11.0,47,0.00,,,0.00,meteohub,2013-07-10 22:39:00,
2013-07-10 15:44:00,76.6,54.3,30.00,WNW,298,0.0,11.0,46,0.00,,,0.00,meteohub,2013-07-10 22:44:00,
2013-07-10 15:49:00,76.8,54.5,30.01,West,271,6.0,11.0,46,0.00,,,0.00,meteohub,2013-07-10 22:49:00,
2013-07-10 15:54:00,76.8,53.2,30.00,NNE,13,0.0,8.0,44,0.00,,,0.00,meteohub,2013-07-10 22:54:00,
2013-07-10 15:59:00,76.6,53.1,30.00,NW,309,0.0,10.0,44,0.00,,,0.00,meteohub,2013-07-10 22:59:00,
2013-07-10 16:04:00,76.6,53.8,30.00,West,265,0.0,10.0,45,0.00,,,0.00,meteohub,2013-07-10 23:04:00,
2013-07-10 16:09:00,76.6,53.1,30.00,NW,315,3.0,9.0,44,0.00,,,0.00,meteohub,2013-07-10 23:09:00,
2013-07-10 16:14:00,76.8,52.7,30.00,West,267,2.0,9.0,43,0.00,,,0.00,meteohub,2013-07-10 23:14:00,
2013-07-10 16:19:00,76.8,51.3,30.00,SW,219,0.0,9.0,41,0.00,,,0.00,meteohub,2013-07-10 23:19:00,
2013-07-10 16:24:00,76.3,52.2,29.99,SW,221,2.0,8.0,43,0.00,,,0.00,meteohub,2013-07-10 23:24:00,
2013-07-10 16:29:00,76.5,51.1,29.99,SW,221,3.0,7.0,41,0.00,,,0.00,meteohub,2013-07-10 23:29:00,
2013-07-10 16:34:00,76.5,51.1,29.99,SSW,196,2.0,10.0,41,0.00,,,0.00,meteohub,2013-07-10 23:34:00,
2013-07-10 16:39:00,76.5,52.9,29.99,NW,311,0.0,11.0,44,0.00,,,0.00,meteohub,2013-07-10 23:39:00,
2013-07-10 16:44:00,76.3,52.7,29.99,SW,236,0.0,11.0,44,0.00,,,0.00,meteohub,2013-07-10 23:44:00,
2013-07-10 16:49:00,76.5,51.1,29.99,WSW,258,2.0,11.0,41,0.00,,,0.00,meteohub,2013-07-10 23:49:00,
2013-07-10 16:54:00,75.9,51.8,29.99,West,264,0.0,10.0,43,0.00,,,0.00,meteohub,2013-07-10 23:54:00,
2013-07-10 16:59:00,75.9,52.5,29.99,WNW,286,8.0,10.0,44,0.00,,,0.00,meteohub,2013-07-10 23:59:00,
2013-07-10 17:04:00,75.9,51.3,29.99,West,281,0.0,10.0,42,0.00,,,0.00,meteohub,2013-07-11 00:04:00,
2013-07-10 17:09:00,75.7,51.6,29.99,SW,235,2.0,8.0,43,0.00,,,0.00,meteohub,2013-07-11 00:09:00,
2013-07-10 17:14:00,75.0,50.4,29.98,NW,314,4.0,8.0,42,0.00,,,0.00,meteohub,2013-07-11 00:14:00,
2013-07-10 17:19:00,75.2,50.5,29.98,West,275,2.0,8.0,42,0.00,,,0.00,meteohub,2013-07-11 00:19:00,
2013-07-10 17:24:00,75.4,51.3,29.98,WNW,297,2.0,8.0,43,0.00,,,0.00,meteohub,2013-07-11 00:24:00,
2013-07-10 17:29:00,75.6,50.9,29.98,NW,313,0.0,9.0,42,0.00,,,0.00,meteohub,2013-07-11 00:29:00,
2013-07-10 17:34:00,75.4,50.0,29.98,West,261,4.0,9.0,41,0.00,,,0.00,meteohub,2013-07-11 00:34:00,
2013-07-10 17:39:00,75.4,48.7,29.97,NW,309,1.0,9.0,39,0.00,,,0.00,meteohub,2013-07-11 00:39:00,
2013-07-10 17:44:00,75.9,50.5,29.97,NNW,330,0.0,6.0,41,0.00,,,0.00,meteohub,2013-07-11 00:44:00,
2013-07-10 17:49:00,76.1,50.7,29.97,West,275,1.0,7.0,41,0.00,,,0.00,meteohub,2013-07-11 00:49:00,
2013-07-10 17:54:00,76.1,49.3,29.97,WNW,290,0.0,9.0,39,0.00,,,0.00,meteohub,2013-07-11 00:54:00,
2013-07-10 17:59:00,75.9,50.5,29.97,West,264,1.0,9.0,41,0.00,,,0.00,meteohub,2013-07-11 00:59:00,
2013-07-10 18:04:00,75.7,50.4,29.97,West,281,0.0,9.0,41,0.00,,,0.00,meteohub,2013-07-11 01:04:00,
2013-07-10 18:09:00,75.6,51.4,29.97,SW,233,0.0,9.0,43,0.00,,,0.00,meteohub,2013-07-11 01:09:00,
2013-07-10 18:14:00,74.8,50.2,29.97,WSW,257,6.0,9.0,42,0.00,,,0.00,meteohub,2013-07-11 01:14:00,
2013-07-10 18:19:00,75.0,52.2,29.97,West,271,0.0,7.0,45,0.00,,,0.00,meteohub,2013-07-11 01:19:00,
2013-07-10 18:24:00,75.2,52.3,29.96,WNW,289,2.0,7.0,45,0.00,,,0.00,meteohub,2013-07-11 01:24:00,
2013-07-10 18:29:00,74.8,52.2,29.96,WSW,252,1.0,7.0,45,0.00,,,0.00,meteohub,2013-07-11 01:29:00,
2013-07-10 18:34:00,74.7,52.5,29.96,NW,321,4.0,8.0,46,0.00,,,0.00,meteohub,2013-07-11 01:34:00,
2013-07-10 18:39:00,74.7,52.5,29.96,West,281,2.0,8.0,46,0.00,,,0.00,meteohub,2013-07-11 01:39:00,
2013-07-10 18:44:00,74.5,52.9,29.96,West,276,6.0,7.0,47,0.00,,,0.00,meteohub,2013-07-11 01:44:00,
2013-07-10 18:49:00,73.9,53.1,29.96,West,271,0.0,8.0,48,0.00,,,0.00,meteohub,2013-07-11 01:49:00,
2013-07-10 18:54:00,73.6,52.7,29.96,West,275,5.0,8.0,48,0.00,,,0.00,meteohub,2013-07-11 01:54:00,
2013-07-10 18:59:00,73.0,53.8,29.96,WNW,284,3.0,9.0,51,0.00,,,0.00,meteohub,2013-07-11 01:59:00,
2013-07-10 19:04:00,72.9,53.6,29.96,WSW,254,0.0,9.0,51,0.00,,,0.00,meteohub,2013-07-11 02:04:00,
2013-07-10 19:09:00,72.3,53.8,29.96,West,275,4.0,9.0,52,0.00,,,0.00,meteohub,2013-07-11 02:09:00,
2013-07-10 19:15:00,72.1,54.5,29.96,West,260,1.0,11.0,54,0.00,,,0.00,meteohub,2013-07-11 02:15:00,
2013-07-10 19:20:00,71.8,54.7,29.96,WNW,288,0.0,11.0,55,0.00,,,0.00,meteohub,2013-07-11 02:20:00,
2013-07-10 19:25:00,71.4,54.5,29.96,West,280,1.0,8.0,55,0.00,,,0.00,meteohub,2013-07-11 02:25:00,
2013-07-10 19:30:00,71.1,54.1,29.96,NW,323,3.0,8.0,55,0.00,,,0.00,meteohub,2013-07-11 02:30:00,
2013-07-10 19:35:00,70.7,53.8,29.96,NNW,333,0.0,9.0,55,0.00,,,0.00,meteohub,2013-07-11 02:35:00,
2013-07-10 19:40:00,70.0,53.1,29.96,WNW,289,1.0,9.0,55,0.00,,,0.00,meteohub,2013-07-11 02:40:00,
2013-07-10 19:45:00,69.3,53.4,29.96,WNW,282,1.0,9.0,57,0.00,,,0.00,meteohub,2013-07-11 02:45:00,
2013-07-10 19:50:00,68.9,53.6,29.96,West,265,4.0,8.0,58,0.00,,,0.00,meteohub,2013-07-11 02:50:00,
2013-07-10 19:55:00,68.5,53.6,29.96,WNW,284,2.0,8.0,59,0.00,,,0.00,meteohub,2013-07-11 02:55:00,
2013-07-10 20:00:00,68.0,53.1,29.96,WNW,286,0.0,8.0,59,0.00,,,0.00,meteohub,2013-07-11 03:00:00,
2013-07-10 20:05:00,67.5,53.1,29.97,West,281,0.0,8.0,60,0.00,,,0.00,meteohub,2013-07-11 03:05:00,
2013-07-10 20:10:00,67.1,53.2,29.97,West,274,4.0,7.0,61,0.00,,,0.00,meteohub,2013-07-11 03:10:00,
2013-07-10 20:15:00,66.7,52.9,29.97,NW,321,0.0,7.0,61,0.00,,,0.00,meteohub,2013-07-11 03:15:00,
2013-07-10 20:20:00,66.4,52.5,29.97,West,281,0.0,7.0,61,0.00,,,0.00,meteohub,2013-07-11 03:20:00,
2013-07-10 20:25:00,65.8,52.5,29.97,NW,312,3.0,7.0,62,0.00,,,0.00,meteohub,2013-07-11 03:25:00,
2013-07-10 20:30:00,65.5,53.1,29.97,NW,317,0.0,9.0,64,0.00,,,0.00,meteohub,2013-07-11 03:30:00,
2013-07-10 20:35:00,64.9,52.5,29.97,West,276,5.0,9.0,64,0.00,,,0.00,meteohub,2013-07-11 03:35:00,
2013-07-10 20:40:00,64.4,52.0,29.98,West,267,1.0,8.0,64,0.00,,,0.00,meteohub,2013-07-11 03:40:00,
2013-07-10 20:45:00,63.9,51.4,29.98,West,267,1.0,9.0,64,0.00,,,0.00,meteohub,2013-07-11 03:45:00,
2013-07-10 20:50:00,63.3,51.4,29.98,NW,326,2.0,9.0,65,0.00,,,0.00,meteohub,2013-07-11 03:50:00,
2013-07-10 20:55:00,63.0,51.4,29.98,NW,315,0.0,9.0,66,0.00,,,0.00,meteohub,2013-07-11 03:55:00,
2013-07-10 21:00:00,62.2,50.7,29.98,NW,322,1.0,4.0,66,0.00,,,0.00,meteohub,2013-07-11 04:00:00,
2013-07-10 21:01:00,62.2,50.7,29.98,NW,315,0.0,4.0,66,0.00,,,0.00,meteohub,2013-07-11 04:01:00,
2013-07-10 21:03:00,62.1,50.9,29.98,NNW,330,0.0,4.0,67,0.00,,,0.00,meteohub,2013-07-11 04:03:00,
2013-07-10 21:08:00,61.5,50.5,29.99,NNW,333,0.0,4.0,67,0.00,,,0.00,meteohub,2013-07-11 04:08:00,
2013-07-10 21:13:00,61.2,51.6,29.99,NNW,333,0.0,4.0,71,0.00,,,0.00,meteohub,2013-07-11 04:13:00,
2013-07-10 21:18:00,60.4,51.1,29.99,NNW,333,0.0,4.0,71,0.00,,,0.00,meteohub,2013-07-11 04:18:00,
2013-07-10 21:23:00,59.7,51.1,29.99,NNW,333,0.0,2.0,73,0.00,,,0.00,meteohub,2013-07-11 04:23:00,
2013-07-10 21:28:00,58.8,50.2,29.99,NNW,333,0.0,0.0,73,0.00,,,0.00,meteohub,2013-07-11 04:28:00,
2013-07-10 21:33:00,58.3,50.4,29.99,NNW,333,0.0,0.0,75,0.00,,,0.00,meteohub,2013-07-11 04:33:00,
2013-07-10 21:38:00,57.7,49.8,29.99,NNW,333,0.0,0.0,75,0.00,,,0.00,meteohub,2013-07-11 04:38:00,
2013-07-10 21:43:00,57.0,49.1,29.99,NNW,333,0.0,0.0,75,0.00,,,0.00,meteohub,2013-07-11 04:43:00,
2013-07-10 21:48:00,56.5,49.3,29.99,NNW,333,0.0,0.0,77,0.00,,,0.00,meteohub,2013-07-11 04:48:00,
2013-07-10 21:53:00,55.9,49.1,30.00,NNW,333,0.0,0.0,78,0.00,,,0.00,meteohub,2013-07-11 04:53:00,
2013-07-10 21:58:00,55.6,49.1,30.00,NNW,333,0.0,0.0,79,0.00,,,0.00,meteohub,2013-07-11 04:58:00,
2013-07-10 22:03:00,55.0,48.6,30.00,NNW,333,0.0,0.0,79,0.00,,,0.00,meteohub,2013-07-11 05:03:00,
2013-07-10 22:08:00,54.5,48.4,30.00,NNW,333,0.0,0.0,80,0.00,,,0.00,meteohub,2013-07-11 05:08:00,
2013-07-10 22:13:00,54.1,48.4,30.00,NNW,333,0.0,0.0,81,0.00,,,0.00,meteohub,2013-07-11 05:13:00,
2013-07-10 22:18:00,53.8,48.0,30.00,NNW,333,0.0,0.0,81,0.00,,,0.00,meteohub,2013-07-11 05:18:00,
2013-07-10 22:23:00,53.4,47.7,30.00,NNW,333,0.0,0.0,81,0.00,,,0.00,meteohub,2013-07-11 05:23:00,
2013-07-10 22:28:00,53.1,47.3,30.00,NNW,333,0.0,0.0,81,0.00,,,0.00,meteohub,2013-07-11 05:28:00,
2013-07-10 22:33:00,52.9,47.3,30.00,NNW,333,0.0,0.0,81,0.00,,,0.00,meteohub,2013-07-11 05:33:00,
2013-07-10 22:38:00,52.5,47.1,30.01,NNW,333,0.0,0.0,82,0.00,,,0.00,meteohub,2013-07-11 05:38:00,
2013-07-10 22:43:00,52.2,46.8,30.00,NNW,333,0.0,0.0,82,0.00,,,0.00,meteohub,2013-07-11 05:43:00,
2013-07-10 22:48:00,52.0,46.6,30.01,NNW,333,0.0,0.0,82,0.00,,,0.00,meteohub,2013-07-11 05:48:00,
2013-07-10 22:53:00,51.8,46.2,30.01,NNW,333,0.0,0.0,81,0.00,,,0.00,meteohub,2013-07-11 05:53:00,
2013-07-10 22:58:00,51.4,45.9,30.01,NNW,333,0.0,0.0,81,0.00,,,0.00,meteohub,2013-07-11 05:58:00,
2013-07-10 23:03:00,51.4,45.9,30.01,NNW,333,0.0,0.0,81,0.00,,,0.00,meteohub,2013-07-11 06:03:00,
2013-07-10 23:08:00,51.3,45.7,30.01,NNW,333,0.0,0.0,81,0.00,,,0.00,meteohub,2013-07-11 06:08:00,
2013-07-10 23:13:00,51.1,45.1,30.01,NNW,333,0.0,0.0,80,0.00,,,0.00,meteohub,2013-07-11 06:13:00,
2013-07-10 23:18:00,51.1,45.1,30.01,NNW,333,0.0,0.0,80,0.00,,,0.00,meteohub,2013-07-11 06:18:00,
2013-07-10 23:23:00,50.9,44.6,30.01,NNW,333,0.0,0.0,79,0.00,,,0.00,meteohub,2013-07-11 06:23:00,
2013-07-10 23:28:00,50.7,44.4,30.01,NNW,333,0.0,0.0,79,0.00,,,0.00,meteohub,2013-07-11 06:28:00,
2013-07-10 23:34:00,50.7,44.1,30.01,NNW,333,0.0,0.0,78,0.00,,,0.00,meteohub,2013-07-11 06:34:00,
2013-07-10 23:39:00,50.5,43.9,30.01,NNW,333,0.0,0.0,78,0.00,,,0.00,meteohub,2013-07-11 06:39:00,
2013-07-10 23:44:00,50.5,43.5,30.01,NNW,333,0.0,0.0,77,0.00,,,0.00,meteohub,2013-07-11 06:44:00,
2013-07-10 23:49:00,50.4,43.3,30.01,NNW,333,0.0,0.0,77,0.00,,,0.00,meteohub,2013-07-11 06:49:00,
2013-07-10 23:54:00,50.4,43.2,30.01,NNW,333,0.0,0.0,76,0.00,,,0.00,meteohub,2013-07-11 06:54:00,
2013-07-10 23:59:00,50.2,43.0,30.01,NNW,333,0.0,0.0,76,0.00,,,0.00,meteohub,2013-07-11 06:59:00,